TimeCST,TemperatureF,Dew PointF,Humidity,Sea Level PressureIn,VisibilityMPH,Wind Direction,Wind SpeedMPH,Gust SpeedMPH,PrecipitationIn,Events,Conditions,WindDirDegrees,DateUTC
12:15 AM,17.6,17.6,100,29.77,0.2,West,5.8,-,N/A,Fog,Light Freezing Fog,260,2012-12-16 06:15:00
12:55 AM,15.8,15.8,100,29.75,0.2,West,5.8,-,N/A,Fog,Light Freezing Fog,260,2012-12-16 06:55:00
1:15 AM,15.8,15.8,100,29.75,0.2,West,5.8,-,N/A,Fog,Light Freezing Fog,270,2012-12-16 07:15:00
1:35 AM,15.8,15.8,100,29.75,0.2,West,3.5,-,N/A,Fog,Light Freezing Fog,270,2012-12-16 07:35:00
1:55 AM,14.0,14.0,100,29.75,0.2,West,4.6,-,N/A,Fog,Light Freezing Fog,270,2012-12-16 07:55:00
2:15 AM,14.0,14.0,100,29.74,0.2,Calm,Calm,-,N/A,Fog,Light Freezing Fog,0,2012-12-16 08:15:00
2:55 AM,10.4,10.4,100,29.74,0.2,Calm,Calm,-,N/A,Fog,Light Freezing Fog,0,2012-12-16 08:55:00
3:15 AM,8.6,8.6,100,29.75,0.2,SSW,3.5,-,N/A,Fog,Light Freezing Fog,210,2012-12-16 09:15:00
3:35 AM,8.6,6.8,92,29.75,0.2,West,3.5,-,N/A,Fog,Light Freezing Fog,270,2012-12-16 09:35:00
3:55 AM,6.8,6.8,100,29.74,0.2,Calm,Calm,-,N/A,Fog,Light Freezing Fog,0,2012-12-16 09:55:00
4:15 AM,8.6,6.8,92,29.74,0.2,Calm,Calm,-,N/A,Fog,Light Freezing Fog,0,2012-12-16 10:15:00
4:35 AM,8.6,6.8,92,29.74,0.2,Calm,Calm,-,N/A,Fog,Light Freezing Fog,0,2012-12-16 10:35:00
4:55 AM,6.8,6.8,100,29.74,0.2,Calm,Calm,-,N/A,Fog,Light Freezing Fog,0,2012-12-16 10:55:00
5:15 AM,6.8,6.8,100,29.75,0.2,Calm,Calm,-,N/A,Fog,Light Freezing Fog,0,2012-12-16 11:15:00
5:35 AM,6.8,5.0,92,29.74,0.5,Calm,Calm,-,N/A,Fog,Light Freezing Fog,0,2012-12-16 11:35:00
5:55 AM,6.8,5.0,92,29.75,0.2,SE,3.5,-,N/A,Snow,Heavy Snow,140,2012-12-16 11:55:00
6:15 AM,6.8,5.0,92,29.75,0.2,Calm,Calm,-,N/A,Fog,Light Freezing Fog,0,2012-12-16 12:15:00
6:35 AM,6.8,5.0,92,29.74,0.2,Calm,Calm,-,N/A,Fog,Light Freezing Fog,0,2012-12-16 12:35:00
6:55 AM,6.8,5.0,92,29.75,0.2,ESE,5.8,-,N/A,Fog,Light Freezing Fog,120,2012-12-16 12:55:00
7:15 AM,6.8,5.0,92,29.75,0.2,SE,4.6,-,N/A,Snow,Heavy Snow,130,2012-12-16 13:15:00
7:35 AM,6.8,5.0,92,29.75,0.2,SE,6.9,-,N/A,Snow,Heavy Snow,130,2012-12-16 13:35:00
7:55 AM,6.8,5.0,92,29.75,0.5,ESE,6.9,-,N/A,Snow,Snow,120,2012-12-16 13:55:00
8:15 AM,6.8,5.0,92,29.75,0.8,ESE,3.5,-,N/A,,Overcast,120,2012-12-16 14:15:00
8:35 AM,6.8,5.0,92,29.75,0.2,SE,4.6,-,N/A,Fog,Light Freezing Fog,140,2012-12-16 14:35:00
8:55 AM,6.8,5.0,92,29.75,-9999.0,SE,5.8,-,N/A,Snow,Heavy Snow,130,2012-12-16 14:55:00
9:15 AM,6.8,5.0,92,29.75,-9999.0,SE,8.1,-,N/A,Snow,Heavy Snow,130,2012-12-16 15:15:00
9:35 AM,6.8,5.0,92,29.75,-9999.0,SE,6.9,-,N/A,Snow,Heavy Snow,140,2012-12-16 15:35:00
9:55 AM,8.6,6.8,92,29.75,-9999.0,SSE,6.9,-,N/A,Snow,Heavy Snow,150,2012-12-16 15:55:00
10:15 AM,6.8,6.8,100,29.75,-9999.0,SSE,6.9,-,N/A,,Overcast,160,2012-12-16 16:15:00
10:35 AM,8.6,6.8,92,29.75,-9999.0,SSE,6.9,-,N/A,,Overcast,150,2012-12-16 16:35:00
10:55 AM,8.6,6.8,92,29.75,-9999.0,SE,6.9,-,N/A,Snow,Heavy Snow,140,2012-12-16 16:55:00
11:15 AM,10.4,8.6,92,29.74,-9999.0,SSE,5.8,-,N/A,,Overcast,150,2012-12-16 17:15:00
11:35 AM,10.4,10.4,100,29.74,-9999.0,SE,6.9,-,N/A,,Overcast,140,2012-12-16 17:35:00
11:55 AM,12.2,10.4,92,29.73,-9999.0,SE,10.4,-,N/A,,Overcast,140,2012-12-16 17:55:00
12:15 PM,14.0,12.2,93,29.72,-9999.0,SSE,6.9,-,N/A,,Overcast,150,2012-12-16 18:15:00
12:35 PM,14.0,14.0,100,29.72,-9999.0,SSE,8.1,-,N/A,,Overcast,150,2012-12-16 18:35:00
12:55 PM,14.0,14.0,100,29.71,-9999.0,SSE,9.2,-,N/A,,Overcast,160,2012-12-16 18:55:00
1:15 PM,15.8,15.8,100,29.71,-9999.0,SSE,9.2,-,N/A,,Overcast,150,2012-12-16 19:15:00
1:35 PM,15.8,15.8,100,29.71,-9999.0,SSE,10.4,-,N/A,,Overcast,160,2012-12-16 19:35:00
1:55 PM,15.8,15.8,100,29.71,-9999.0,South,10.4,-,N/A,,Overcast,170,2012-12-16 19:55:00
2:15 PM,15.8,15.8,100,29.70,-9999.0,SE,9.2,-,N/A,,Overcast,140,2012-12-16 20:15:00
2:35 PM,15.8,15.8,100,29.70,-9999.0,SSE,8.1,-,N/A,,Overcast,150,2012-12-16 20:35:00
2:55 PM,15.8,15.8,100,29.70,-9999.0,SSE,8.1,-,N/A,Snow,Heavy Snow,150,2012-12-16 20:55:00
3:15 PM,15.8,15.8,100,29.70,-9999.0,SE,6.9,-,N/A,,Overcast,140,2012-12-16 21:15:00
3:35 PM,15.8,15.8,100,29.70,-9999.0,SE,9.2,-,N/A,,Overcast,140,2012-12-16 21:35:00
4:15 PM,15.8,15.8,100,29.70,-9999.0,South,11.5,-,N/A,,Overcast,170,2012-12-16 22:15:00
4:35 PM,17.6,17.6,100,29.71,-9999.0,South,5.8,-,N/A,,Overcast,170,2012-12-16 22:35:00
4:55 PM,17.6,17.6,100,29.70,-9999.0,South,10.4,-,N/A,,Overcast,170,2012-12-16 22:55:00
5:15 PM,17.6,17.6,100,29.70,-9999.0,SSE,9.2,-,N/A,,Overcast,150,2012-12-16 23:15:00
5:35 PM,17.6,17.6,100,29.70,-9999.0,SSE,9.2,-,N/A,,Overcast,160,2012-12-16 23:35:00
5:55 PM,17.6,17.6,100,29.70,-9999.0,SE,9.2,-,N/A,,Overcast,140,2012-12-16 23:55:00
6:15 PM,17.6,17.6,100,29.70,10.0,SE,8.1,-,N/A,,Overcast,140,2012-12-17 00:15:00
6:35 PM,17.6,17.6,100,29.70,-9999.0,SSE,6.9,-,N/A,,Overcast,150,2012-12-17 00:35:00
6:55 PM,17.6,17.6,100,29.70,-9999.0,SSE,6.9,-,N/A,,Overcast,150,2012-12-17 00:55:00
7:15 PM,17.6,17.6,100,29.70,-9999.0,SE,8.1,-,N/A,,Overcast,140,2012-12-17 01:15:00
7:35 PM,17.6,17.6,100,29.70,10.0,SE,6.9,-,N/A,,Overcast,140,2012-12-17 01:35:00
7:55 PM,17.6,17.6,100,29.70,-9999.0,SSE,5.8,-,N/A,,Unknown,150,2012-12-17 01:55:00
8:15 PM,17.6,17.6,100,29.70,-9999.0,SSE,9.2,-,N/A,,Overcast,150,2012-12-17 02:15:00
8:35 PM,17.6,17.6,100,29.70,-9999.0,SSE,8.1,-,N/A,,Overcast,150,2012-12-17 02:35:00
8:55 PM,17.6,17.6,100,29.70,-9999.0,SSE,10.4,-,N/A,,Overcast,160,2012-12-17 02:55:00
9:15 PM,17.6,17.6,100,29.70,10.0,SSE,10.4,-,N/A,,Overcast,150,2012-12-17 03:15:00
9:35 PM,17.6,17.6,100,29.70,-9999.0,SSE,8.1,-,N/A,,Overcast,160,2012-12-17 03:35:00
9:55 PM,17.6,17.6,100,29.69,-9999.0,SSE,8.1,-,N/A,,Overcast,160,2012-12-17 03:55:00
10:15 PM,17.6,17.6,100,29.69,-9999.0,SSE,6.9,-,N/A,,Overcast,160,2012-12-17 04:15:00
10:35 PM,17.6,17.6,100,29.69,-9999.0,SSE,6.9,-,N/A,,Overcast,150,2012-12-17 04:35:00
10:55 PM,17.6,17.6,100,29.68,-9999.0,SSE,8.1,-,N/A,Snow,Heavy Snow,150,2012-12-17 04:55:00
11:15 PM,17.6,17.6,100,29.68,-9999.0,SSE,6.9,-,N/A,Snow,Heavy Snow,150,2012-12-17 05:15:00
11:35 PM,17.6,17.6,100,29.67,-9999.0,SE,9.2,-,N/A,Snow,Heavy Snow,140,2012-12-17 05:35:00
11:55 PM,17.6,17.6,100,29.67,10.0,SE,9.2,-,N/A,Snow,Light Snow,140,2012-12-17 05:55:00